SWA3318 KMDW-KMKE

Flight info

Callsign SWA3318
Flight time 0h 23m
Altitude 7000
Route RAYNR BRTMN TAAYZ
Aircraft B737/M-SDE2E3FGHIRWXY/LB1

Departure

Time 2026-04-26 00:00
Airport Chicago Midway International Airport (KMDW)

Arrival

Time 2026-04-26 00:24
Airport General Mitchell International Airport (KMKE)
Time Latitude Longitude Altitude Speed Heading
2026-04-25 23:47 41.78592 -87.74571 628 ft 0 kts
2026-04-25 23:54 41.78585 -87.74573 634 ft 4 kts
2026-04-25 23:54 41.78559 -87.74569 638 ft 4 kts 334°
2026-04-25 23:55 41.78543 -87.74551 632 ft 4 kts 267°
2026-04-25 23:55 41.78545 -87.74539 637 ft 1 kts 223°
2026-04-25 23:57 41.78537 -87.74549 632 ft 6 kts 223°
2026-04-25 23:57 41.78502 -87.74620 628 ft 11 kts 269°
2026-04-25 23:57 41.78554 -87.74710 628 ft 16 kts 313°
2026-04-25 23:58 41.78618 -87.74837 628 ft 16 kts 252°
2026-04-25 23:58 41.78538 -87.74944 633 ft 20 kts 223°
2026-04-25 23:58 41.78412 -87.75103 633 ft 29 kts 223°
2026-04-25 23:58 41.78266 -87.75288 628 ft 28 kts 223°
2026-04-25 23:59 41.78128 -87.75463 630 ft 26 kts 223°
2026-04-25 23:59 41.77999 -87.75626 628 ft 25 kts 223°
2026-04-25 23:59 41.77918 -87.75756 630 ft 16 kts 256°
2026-04-25 23:59 41.77946 -87.75874 627 ft 15 kts
2026-04-26 00:00 41.78065 -87.75745 631 ft 48 kts 43°
2026-04-26 00:00 41.78510 -87.75181 632 ft 125 kts 44°
2026-04-26 00:00 41.79256 -87.74231 1004 ft 158 kts 45°
2026-04-26 00:00 41.79903 -87.73009 1947 ft 164 kts 66°
2026-04-26 00:01 41.80089 -87.71391 2580 ft 193 kts 86°
2026-04-26 00:01 41.80121 -87.69455 2908 ft 221 kts 86°
2026-04-26 00:01 41.80173 -87.67293 3455 ft 243 kts 86°
2026-04-26 00:01 41.80238 -87.65006 4436 ft 248 kts 85°
2026-04-26 00:02 41.80629 -87.62755 5390 ft 252 kts 63°
2026-04-26 00:02 41.81545 -87.60735 6481 ft 256 kts 57°
2026-04-26 00:02 41.82538 -87.58756 6849 ft 255 kts 56°
2026-04-26 00:02 41.83562 -87.56748 6994 ft 266 kts 56°
2026-04-26 00:03 41.84691 -87.54789 6989 ft 266 kts 42°
2026-04-26 00:03 41.86308 -87.53628 6998 ft 268 kts 15°
2026-04-26 00:03 41.88173 -87.53531 7014 ft 271 kts 358°
2026-04-26 00:03 41.90053 -87.53801 7002 ft 273 kts 356°
2026-04-26 00:04 41.91916 -87.54106 7008 ft 273 kts 356°
2026-04-26 00:04 41.93805 -87.54434 7007 ft 274 kts 355°
2026-04-26 00:04 41.95699 -87.54761 7008 ft 275 kts 356°
2026-04-26 00:04 41.97591 -87.55097 7015 ft 274 kts 355°
2026-04-26 00:05 41.99479 -87.55417 7010 ft 274 kts 355°
2026-04-26 00:05 42.01366 -87.55736 7009 ft 273 kts 355°
2026-04-26 00:05 42.03249 -87.56052 7011 ft 272 kts 356°
2026-04-26 00:05 42.05127 -87.56367 7019 ft 271 kts 355°
2026-04-26 00:06 42.06967 -87.57074 7007 ft 277 kts 331°
2026-04-26 00:06 42.08488 -87.58609 7021 ft 278 kts 324°
2026-04-26 00:06 42.09982 -87.60258 7021 ft 278 kts 324°
2026-04-26 00:06 42.11477 -87.61902 7021 ft 277 kts 324°
2026-04-26 00:07 42.12980 -87.63531 7021 ft 277 kts 325°
2026-04-26 00:07 42.14489 -87.65146 7019 ft 277 kts 325°
2026-04-26 00:07 42.16006 -87.66754 7021 ft 277 kts 325°
2026-04-26 00:07 42.17527 -87.68357 7019 ft 277 kts 325°
2026-04-26 00:08 42.19049 -87.69957 7021 ft 277 kts 325°
2026-04-26 00:08 42.20568 -87.71551 7013 ft 277 kts 325°
2026-04-26 00:08 42.22086 -87.73142 7010 ft 276 kts 325°
2026-04-26 00:08 42.23604 -87.74732 7010 ft 276 kts 325°
2026-04-26 00:09 42.25118 -87.76318 7019 ft 276 kts 325°
2026-04-26 00:09 42.26637 -87.77910 7016 ft 276 kts 325°
2026-04-26 00:09 42.28150 -87.79497 7011 ft 276 kts 325°
2026-04-26 00:09 42.29669 -87.81085 7010 ft 275 kts 327°
2026-04-26 00:10 42.31369 -87.82183 7002 ft 269 kts 349°
2026-04-26 00:10 42.33212 -87.82396 7010 ft 265 kts
2026-04-26 00:10 42.35048 -87.82176 7016 ft 265 kts
2026-04-26 00:10 42.36882 -87.81912 7011 ft 265 kts
2026-04-26 00:11 42.38718 -87.81651 7005 ft 266 kts
2026-04-26 00:11 42.40562 -87.81400 7008 ft 266 kts
2026-04-26 00:11 42.42404 -87.81159 7008 ft 266 kts
2026-04-26 00:11 42.44246 -87.80922 7011 ft 266 kts
2026-04-26 00:12 42.46091 -87.80687 7006 ft 266 kts
2026-04-26 00:12 42.47915 -87.80513 7007 ft 267 kts
2026-04-26 00:12 42.49773 -87.80581 7017 ft 267 kts 359°
2026-04-26 00:12 42.51633 -87.80718 7014 ft 268 kts 359°
2026-04-26 00:13 42.53492 -87.80862 7025 ft 268 kts 359°
2026-04-26 00:13 42.55359 -87.81001 7029 ft 268 kts 359°
2026-04-26 00:13 42.57221 -87.81133 7026 ft 268 kts 359°
2026-04-26 00:13 42.59086 -87.81261 7029 ft 268 kts 359°
2026-04-26 00:14 42.60940 -87.81384 7026 ft 268 kts 359°
2026-04-26 00:14 42.62801 -87.81506 7027 ft 267 kts 359°
2026-04-26 00:14 42.64637 -87.81870 7013 ft 270 kts 339°
2026-04-26 00:14 42.66117 -87.83440 7042 ft 274 kts 314°
2026-04-26 00:15 42.67344 -87.85434 7037 ft 275 kts 312°
2026-04-26 00:15 42.68537 -87.87464 7035 ft 276 kts 311°
2026-04-26 00:15 42.69733 -87.89515 7033 ft 276 kts 311°
2026-04-26 00:15 42.70920 -87.91547 7037 ft 274 kts 311°
2026-04-26 00:16 42.72093 -87.93554 6923 ft 267 kts 311°
2026-04-26 00:16 42.73241 -87.95511 6641 ft 264 kts 312°
2026-04-26 00:16 42.74385 -87.97457 6288 ft 263 kts 312°
2026-04-26 00:16 42.75530 -87.99401 5922 ft 263 kts 312°
2026-04-26 00:17 42.76672 -88.01342 5581 ft 263 kts 312°
2026-04-26 00:17 42.77816 -88.03287 5211 ft 263 kts 312°
2026-04-26 00:17 42.78962 -88.05236 4834 ft 264 kts 312°
2026-04-26 00:17 42.80109 -88.07187 4479 ft 263 kts 312°
2026-04-26 00:18 42.81241 -88.09116 4232 ft 258 kts 312°
2026-04-26 00:18 42.82354 -88.11012 3983 ft 254 kts 313°
2026-04-26 00:18 42.83432 -88.12851 3745 ft 243 kts 313°
2026-04-26 00:18 42.84467 -88.14601 3505 ft 230 kts 317°
2026-04-26 00:19 42.85740 -88.15689 3225 ft 209 kts 353°
2026-04-26 00:19 42.87088 -88.15473 3065 ft 187 kts 28°
2026-04-26 00:19 42.88056 -88.14466 3014 ft 167 kts 50°
2026-04-26 00:19 42.88614 -88.13127 3019 ft 161 kts 67°
2026-04-26 00:20 42.89023 -88.11717 3037 ft 160 kts 66°
2026-04-26 00:20 42.89412 -88.10304 3048 ft 162 kts 68°
2026-04-26 00:20 42.89780 -88.08838 3037 ft 164 kts 69°
2026-04-26 00:20 42.90142 -88.07356 3034 ft 165 kts 70°
2026-04-26 00:21 42.90502 -88.05863 2924 ft 167 kts 70°
2026-04-26 00:21 42.90862 -88.04369 2719 ft 164 kts 69°
2026-04-26 00:21 42.91214 -88.02909 2496 ft 159 kts 69°
2026-04-26 00:21 42.91544 -88.01536 2301 ft 145 kts 68°
2026-04-26 00:22 42.91842 -88.00304 2129 ft 132 kts 68°
2026-04-26 00:22 42.92124 -87.99138 1942 ft 127 kts 66°
2026-04-26 00:22 42.92399 -87.98003 1766 ft 125 kts 66°
2026-04-26 00:22 42.92672 -87.96882 1566 ft 125 kts 68°
2026-04-26 00:23 42.92944 -87.95750 1393 ft 126 kts 66°
2026-04-26 00:23 42.93223 -87.94603 1203 ft 129 kts 69°
2026-04-26 00:23 42.93510 -87.93411 987 ft 136 kts 70°
2026-04-26 00:23 42.93807 -87.92177 779 ft 136 kts 69°
2026-04-26 00:24 42.94096 -87.90998 689 ft 120 kts 69°
2026-04-26 00:24 42.94322 -87.90082 685 ft 72 kts 71°
2026-04-26 00:24 42.94425 -87.89741 683 ft 28 kts 48°
2026-04-26 00:24 42.94594 -87.89652 685 ft 26 kts
2026-04-26 00:25 42.94765 -87.89623 685 ft 24 kts
2026-04-26 00:25 42.94915 -87.89597 683 ft 16 kts
2026-04-26 00:25 42.94972 -87.89676 687 ft 16 kts 271°
2026-04-26 00:25 42.95038 -87.89809 682 ft 19 kts 328°
2026-04-26 00:26 42.95151 -87.89964 683 ft 24 kts 313°
2026-04-26 00:26 42.95205 -87.90089 684 ft 13 kts 258°
2026-04-26 00:26 42.95141 -87.90187 685 ft 14 kts 223°
2026-04-26 00:26 42.95096 -87.90182 686 ft 9 kts 121°
2026-04-26 00:27 42.95078 -87.90139 684 ft 0 kts 118°
2026-04-26 00:29 42.95078 -87.90138 684 ft 0 kts 118°